| time (UTC) | temp F | wind direction | speed MPH | gust MPH | rain 1hr in | rain 24hr in | rain mn in | humidity % | barometer mb |
| 20260906231010 | 59 | 108 | 1.0 | 5.0 | 0.00 | 0.03 | 0.03 | 83 | 1018.2 |
| 20260906230508 | 59 | 96 | 2.0 | 5.0 | 0.00 | 0.03 | 0.03 | 83 | 1018.4 |
| 20260906230015 | 59 | 98 | 3.0 | 6.0 | 0.00 | 0.03 | 0.03 | 83 | 1018.3 |
| 20260906225510 | 59 | 124 | 3.0 | 9.0 | 0.00 | 0.03 | 0.03 | 83 | 1018.3 |
| 20260906225012 | 58 | 101 | 2.0 | 9.0 | 0.00 | 0.03 | 0.03 | 83 | 1018.3 |
| 20260906224527 | 58 | 124 | 2.0 | 6.0 | 0.00 | 0.03 | 0.03 | 84 | 1018.3 |
| 20260906224010 | 58 | 51 | 1.0 | 6.0 | 0.00 | 0.03 | 0.03 | 85 | 1018.4 |
| 20260906223516 | 58 | 133 | 1.0 | 6.0 | 0.00 | 0.03 | 0.03 | 85 | 1018.3 |
| 20260906223030 | 57 | 60 | 3.0 | 7.0 | 0.00 | 0.03 | 0.03 | 86 | 1018.3 |
| 20260906222504 | 57 | 143 | 3.0 | 7.0 | 0.00 | 0.03 | 0.03 | 86 | 1018.5 |
| 20260906222004 | 57 | 124 | 1.0 | 9.0 | 0.01 | 0.03 | 0.03 | 87 | 1018.5 |
| 20260906221511 | 57 | 117 | 1.0 | 9.0 | 0.01 | 0.03 | 0.03 | 88 | 1018.6 |
| 20260906221003 | 57 | 95 | 3.0 | 6.0 | 0.01 | 0.03 | 0.03 | 88 | 1018.6 |
| 20260906220503 | 56 | 113 | 2.0 | 7.0 | 0.01 | 0.03 | 0.03 | 88 | 1018.6 |
| 20260906220017 | 56 | 102 | 4.0 | 7.0 | 0.01 | 0.03 | 0.03 | 88 | 1018.6 |
| 20260906215509 | 56 | 52 | 2.0 | 7.0 | 0.02 | 0.03 | 0.03 | 89 | 1018.7 |
| 20260906215008 | 56 | 113 | 2.0 | 7.0 | 0.02 | 0.03 | 0.03 | 89 | 1018.6 |
| 20260906214521 | 56 | 94 | 4.0 | 7.0 | 0.02 | 0.03 | 0.03 | 90 | 1018.7 |
| 20260906214010 | 56 | 86 | 3.0 | 7.0 | 0.02 | 0.03 | 0.03 | 90 | 1018.7 |
| 20260906213512 | 55 | 101 | 1.0 | 7.0 | 0.02 | 0.03 | 0.03 | 90 | 1018.8 |
| 20260906213028 | 55 | 33 | 3.0 | 9.0 | 0.02 | 0.03 | 0.03 | 90 | 1018.7 |
| 20260906212513 | 55 | 87 | 3.0 | 9.0 | 0.02 | 0.03 | 0.03 | 89 | 1018.8 |
| 20260906212015 | 56 | 93 | 3.0 | 8.0 | 0.01 | 0.02 | 0.02 | 89 | 1018.8 |
| 20260906211529 | 56 | 84 | 2.0 | 8.0 | 0.01 | 0.02 | 0.02 | 89 | 1018.9 |
| 20260906211015 | 56 | 71 | 3.0 | 8.0 | 0.01 | 0.02 | 0.02 | 89 | 1018.8 |
| 20260906210505 | 56 | 101 | 4.0 | 8.0 | 0.01 | 0.02 | 0.02 | 89 | 1018.8 |
| 20260906210011 | 56 | 121 | 3.0 | 8.0 | 0.01 | 0.02 | 0.02 | 88 | 1018.8 |
| 20260906205507 | 56 | 59 | 4.0 | 9.0 | 0.00 | 0.01 | 0.01 | 87 | 1018.9 |
| 20260906205003 | 56 | 129 | 4.0 | 9.0 | 0.00 | 0.01 | 0.01 | 87 | 1019.0 |
| 20260906204517 | 56 | 79 | 2.0 | 9.0 | 0.00 | 0.01 | 0.01 | 88 | 1019.0 |
| 20260906204008 | 56 | 93 | 4.0 | 9.0 | 0.00 | 0.01 | 0.01 | 88 | 1019.0 |
| 20260906203508 | 56 | 114 | 2.0 | 6.0 | 0.00 | 0.01 | 0.01 | 89 | 1019.0 |
| 20260906203024 | 56 | 101 | 2.0 | 7.0 | 0.00 | 0.01 | 0.01 | 89 | 1019.0 |
| 20260906202511 | 56 | 124 | 4.0 | 9.0 | 0.00 | 0.01 | 0.01 | 89 | 1019.0 |
| 20260906202014 | 56 | 112 | 3.0 | 9.0 | 0.00 | 0.01 | 0.01 | 90 | 1019.0 |
| 20260906201528 | 56 | 78 | 2.0 | 6.0 | 0.01 | 0.01 | 0.01 | 90 | 1019.1 |
| 20260906201015 | 56 | 95 | 3.0 | 6.0 | 0.01 | 0.01 | 0.01 | 90 | 1019.1 |
| 20260906200515 | 56 | 90 | 2.0 | 6.0 | 0.01 | 0.01 | 0.01 | 91 | 1019.1 |
| 20260906200030 | 55 | 73 | 3.0 | 6.0 | 0.01 | 0.01 | 0.01 | 90 | 1019.1 |
| 20260906195517 | 56 | 117 | 2.0 | 6.0 | 0.01 | 0.01 | 0.01 | 91 | 1019.3 |
| 20260906195017 | 55 | 101 | 3.0 | 6.0 | 0.01 | 0.01 | 0.01 | 91 | 1019.3 |
| 20260906194513 | 55 | 113 | 3.0 | 9.0 | 0.01 | 0.01 | 0.01 | 91 | 1019.4 |
| 20260906194005 | 55 | 181 | 2.0 | 9.0 | 0.01 | 0.01 | 0.01 | 91 | 1019.4 |
| 20260906193509 | 55 | 86 | 1.0 | 4.0 | 0.01 | 0.01 | 0.01 | 91 | 1019.5 |
| 20260906193018 | 55 | 93 | 1.0 | 4.0 | 0.01 | 0.01 | 0.01 | 92 | 1019.4 |
| 20260906192509 | 55 | 120 | 1.0 | 5.0 | 0.01 | 0.01 | 0.01 | 92 | 1019.4 |
| 20260906192012 | 55 | 85 | 2.0 | 5.0 | 0.01 | 0.01 | 0.01 | 91 | 1019.5 |
| 20260906191525 | 55 | 78 | 1.0 | 4.0 | 0.00 | 0.00 | 0.00 | 91 | 1019.5 |
| 20260906191014 | 55 | 124 | 1.0 | 4.0 | 0.00 | 0.00 | 0.00 | 91 | 1019.7 |
| 20260906190514 | 55 | 82 | 1.0 | 5.0 | 0.00 | 0.00 | 0.00 | 91 | 1019.7 |
| 20260906190031 | 55 | 110 | 3.0 | 5.0 | 0.00 | 0.00 | 0.00 | 91 | 1019.7 |
| 20260906185514 | 55 | 77 | 2.0 | 5.0 | 0.00 | 0.00 | 0.00 | 91 | 1019.7 |
| 20260906185013 | 54 | 101 | 2.0 | 8.0 | 0.00 | 0.00 | 0.00 | 91 | 1019.7 |
| 20260906184533 | 55 | 74 | 3.0 | 8.0 | 0.00 | 0.00 | 0.00 | 91 | 1019.8 |
| 20260906184019 | 54 | 121 | 1.0 | 5.0 | 0.00 | 0.00 | 0.00 | 91 | 1019.8 |
| 20260906183515 | 54 | 119 | 1.0 | 4.0 | 0.00 | 0.00 | 0.00 | 91 | 1019.8 |
| 20260906183031 | 54 | 78 | 0.0 | 3.0 | 0.00 | 0.00 | 0.00 | 92 | 1019.8 |
| 20260906182508 | 54 | 73 | 1.0 | 3.0 | 0.00 | 0.00 | 0.00 | 92 | 1019.8 |
| 20260906182007 | 54 | 118 | 1.0 | 4.0 | 0.00 | 0.00 | 0.00 | 92 | 1019.8 |
| 20260906181527 | 54 | 100 | 0.0 | 4.0 | 0.00 | 0.00 | 0.00 | 92 | 1019.9 |
| 20260906181009 | 54 | 37 | 2.0 | 4.0 | 0.00 | 0.00 | 0.00 | 91 | 1020.0 |
| 20260906180513 | 54 | 102 | 1.0 | 3.0 | 0.00 | 0.00 | 0.00 | 91 | 1020.1 |
| 20260906180026 | 54 | 124 | 2.0 | 5.0 | 0.00 | 0.00 | 0.00 | 91 | 1020.1 |
| 20260906175512 | 54 | 78 | 2.0 | 5.0 | 0.00 | 0.00 | 0.00 | 91 | 1020.1 |
| 20260906175016 | 54 | 112 | 0.0 | 3.0 | 0.00 | 0.00 | 0.00 | 91 | 1020.1 |
| 20260906174530 | 53 | 53 | 2.0 | 3.0 | 0.00 | 0.00 | 0.00 | 90 | 1020.2 |
| 20260906174016 | 53 | 117 | 1.0 | 2.0 | 0.00 | 0.00 | 0.00 | 90 | 1020.3 |
| 20260906173515 | 53 | 123 | 0.0 | 2.0 | 0.00 | 0.00 | 0.00 | 90 | 1020.4 |
| 20260906173007 | 53 | 72 | 0.0 | 2.0 | 0.00 | 0.00 | 0.00 | 90 | 1020.3 |
| 20260906172503 | 53 | 117 | 1.0 | 3.0 | 0.00 | 0.00 | 0.00 | 89 | 1020.4 |
| 20260906172003 | 53 | 86 | 1.0 | 3.0 | 0.00 | 0.00 | 0.00 | 89 | 1020.4 |
| 20260906171503 | 53 | 113 | 1.0 | 3.0 | 0.00 | 0.00 | 0.00 | 89 | 1020.4 |
| 20260906171002 | 53 | 96 | 0.0 | 3.0 | 0.00 | 0.00 | 0.00 | 88 | 1020.4 |
| 20260906170503 | 53 | 94 | 0.0 | 3.0 | 0.00 | 0.00 | 0.00 | 88 | 1020.4 |
| 20260906170007 | 53 | 108 | 1.0 | 3.0 | 0.00 | 0.00 | 0.00 | 88 | 1020.4 |
| 20260906165503 | 53 | 122 | 1.0 | 3.0 | 0.00 | 0.00 | 0.00 | 88 | 1020.4 |
| 20260906165002 | 53 | 120 | 1.0 | 3.0 | 0.00 | 0.00 | 0.00 | 88 | 1020.5 |
| 20260906164510 | 53 | 104 | 0.0 | 3.0 | 0.00 | 0.00 | 0.00 | 88 | 1020.5 |
| 20260906164004 | 53 | 122 | 1.0 | 5.0 | 0.00 | 0.00 | 0.00 | 88 | 1020.6 |
| 20260906163503 | 53 | 145 | 1.0 | 5.0 | 0.00 | 0.00 | 0.00 | 88 | 1020.4 |
| 20260906163008 | 53 | 79 | 1.0 | 3.0 | 0.00 | 0.00 | 0.00 | 88 | 1020.6 |
| 20260906162503 | 53 | 115 | 0.0 | 3.0 | 0.00 | 0.00 | 0.00 | 88 | 1020.5 |
| 20260906162004 | 53 | 117 | 0.0 | 4.0 | 0.00 | 0.00 | 0.00 | 88 | 1020.6 |
| 20260906161508 | 53 | 111 | 2.0 | 4.0 | 0.00 | 0.00 | 0.00 | 88 | 1020.7 |
| 20260906161004 | 53 | 115 | 1.0 | 2.0 | 0.00 | 0.00 | 0.00 | 88 | 1020.6 |
| 20260906160505 | 53 | 111 | 0.0 | 3.0 | 0.00 | 0.00 | 0.00 | 88 | 1020.6 |
| 20260906160009 | 52 | 150 | 0.0 | 3.0 | 0.00 | 0.00 | 0.00 | 89 | 1020.6 |
| 20260906155502 | 52 | 108 | 0.0 | 3.0 | 0.00 | 0.00 | 0.00 | 89 | 1020.4 |
| 20260906155002 | 52 | 68 | 1.0 | 3.0 | 0.00 | 0.00 | 0.00 | 89 | 1020.1 |
| 20260906154510 | 52 | 122 | 0.0 | 1.0 | 0.00 | 0.00 | 0.00 | 89 | 1020.1 |
| 20260906154003 | 52 | 122 | 0.0 | 1.0 | 0.00 | 0.00 | 0.00 | 89 | 1020.2 |
| 20260906153503 | 52 | 194 | 0.0 | 1.0 | 0.00 | 0.00 | 0.00 | 89 | 1020.3 |
| 20260906153006 | 52 | 148 | 0.0 | 2.0 | 0.00 | 0.00 | 0.00 | 89 | 1020.3 |
| 20260906152506 | 52 | 148 | 0.0 | 2.0 | 0.00 | 0.00 | 0.00 | 89 | 1020.4 |
| 20260906152004 | 52 | 98 | 0.0 | 2.0 | 0.00 | 0.00 | 0.00 | 89 | 1020.4 |
| 20260906151509 | 51 | 185 | 1.0 | 2.0 | 0.00 | 0.00 | 0.00 | 89 | 1020.4 |
| 20260906151004 | 51 | 103 | 0.0 | 3.0 | 0.00 | 0.00 | 0.00 | 89 | 1020.6 |
| 20260906150504 | 51 | 83 | 2.0 | 3.0 | 0.00 | 0.00 | 0.00 | 89 | 1020.8 |
| 20260906150013 | 51 | 113 | 0.0 | 2.0 | 0.00 | 0.00 | 0.00 | 89 | 1020.8 |
| 20260906145507 | 51 | 113 | 0.0 | 4.0 | 0.00 | 0.00 | 0.00 | 89 | 1020.7 |
| 20260906145004 | 51 | 102 | 0.0 | 4.0 | 0.00 | 0.00 | 0.00 | 89 | 1020.8 |
| 20260906144516 | 51 | 135 | 1.0 | 3.0 | 0.00 | 0.00 | 0.00 | 89 | 1020.7 |
| 20260906144006 | 51 | 134 | 0.0 | 5.0 | 0.00 | 0.00 | 0.00 | 90 | 1020.7 |
| 20260906143503 | 51 | 72 | 2.0 | 5.0 | 0.00 | 0.00 | 0.00 | 89 | 1020.8 |
| 20260906143009 | 51 | 103 | 1.0 | 3.0 | 0.00 | 0.00 | 0.00 | 90 | 1020.8 |
| 20260906142503 | 51 | 58 | 1.0 | 3.0 | 0.00 | 0.00 | 0.00 | 90 | 1020.8 |
| 20260906142004 | 51 | 86 | 1.0 | 3.0 | 0.00 | 0.00 | 0.00 | 90 | 1020.8 |
| 20260906141503 | 51 | 113 | 0.0 | 3.0 | 0.00 | 0.00 | 0.00 | 90 | 1020.8 |
| 20260906141004 | 51 | 109 | 0.0 | 3.0 | 0.00 | 0.00 | 0.00 | 90 | 1020.7 |
| 20260906140504 | 51 | 122 | 1.0 | 3.0 | 0.00 | 0.00 | 0.00 | 90 | 1020.7 |
| 20260906140010 | 51 | 165 | 0.0 | 1.0 | 0.00 | 0.00 | 0.00 | 91 | 1020.8 |
| 20260906135504 | 51 | 124 | 0.0 | 3.0 | 0.00 | 0.00 | 0.00 | 91 | 1020.8 |
| 20260906135007 | 51 | 113 | 1.0 | 4.0 | 0.00 | 0.00 | 0.00 | 91 | 1020.8 |
| 20260906134522 | 51 | 115 | 2.0 | 4.0 | 0.00 | 0.00 | 0.00 | 91 | 1020.7 |
| 20260906134008 | 51 | 111 | 2.0 | 3.0 | 0.00 | 0.00 | 0.00 | 91 | 1020.8 |
| 20260906133505 | 51 | 110 | 1.0 | 3.0 | 0.00 | 0.00 | 0.00 | 91 | 1020.8 |
| 20260906133017 | 51 | 120 | 1.0 | 3.0 | 0.00 | 0.00 | 0.00 | 91 | 1020.8 |
| 20260906132507 | 51 | 117 | 1.0 | 2.0 | 0.00 | 0.00 | 0.00 | 91 | 1020.9 |
| 20260906132005 | 51 | 94 | 0.0 | 3.0 | 0.00 | 0.00 | 0.00 | 91 | 1021.0 |
| 20260906131507 | 51 | 116 | 2.0 | 3.0 | 0.00 | 0.00 | 0.00 | 91 | 1021.0 |
| 20260906131004 | 51 | 119 | 1.0 | 2.0 | 0.00 | 0.00 | 0.00 | 91 | 1021.1 |
| 20260906130504 | 51 | 94 | 1.0 | 3.0 | 0.00 | 0.00 | 0.00 | 91 | 1021.1 |
| 20260906130009 | 51 | 94 | 1.0 | 3.0 | 0.00 | 0.00 | 0.00 | 91 | 1021.0 |
| 20260906125503 | 51 | 122 | 0.0 | 3.0 | 0.00 | 0.00 | 0.00 | 91 | 1021.0 |
| 20260906125003 | 51 | 115 | 1.0 | 4.0 | 0.00 | 0.00 | 0.00 | 91 | 1021.1 |
| 20260906124518 | 51 | 124 | 0.0 | 4.0 | 0.00 | 0.00 | 0.00 | 91 | 1021.2 |
| 20260906124009 | 51 | 102 | 1.0 | 4.0 | 0.00 | 0.00 | 0.00 | 91 | 1021.4 |
| 20260906123509 | 51 | 111 | 0.0 | 3.0 | 0.00 | 0.00 | 0.00 | 91 | 1021.5 |
| 20260906123031 | 51 | 139 | 1.0 | 4.0 | 0.00 | 0.00 | 0.00 | 91 | 1021.5 |
| 20260906122513 | 51 | 111 | 1.0 | 4.0 | 0.00 | 0.00 | 0.00 | 91 | 1021.6 |
| 20260906122010 | 51 | 162 | 0.0 | 3.0 | 0.00 | 0.00 | 0.00 | 91 | 1021.7 |
| 20260906121523 | 51 | 120 | 1.0 | 3.0 | 0.00 | 0.00 | 0.00 | 91 | 1021.6 |
| 20260906121012 | 51 | 120 | 2.0 | 7.0 | 0.00 | 0.00 | 0.00 | 91 | 1021.8 |
| 20260906120510 | 51 | 158 | 0.0 | 7.0 | 0.00 | 0.00 | 0.00 | 91 | 1021.9 |
| 20260906120025 | 51 | 95 | 3.0 | 7.0 | 0.00 | 0.00 | 0.00 | 91 | 1021.9 |
| 20260906115503 | 51 | 129 | 2.0 | 4.0 | 0.00 | 0.00 | 0.00 | 91 | 1021.8 |
| 20260906115004 | 51 | 120 | 0.0 | 4.0 | 0.00 | 0.00 | 0.00 | 91 | 1021.8 |
| 20260906114511 | 51 | 113 | 1.0 | 4.0 | 0.00 | 0.00 | 0.00 | 91 | 1021.8 |
| 20260906114006 | 51 | 122 | 2.0 | 4.0 | 0.00 | 0.00 | 0.00 | 90 | 1021.8 |
| 20260906113504 | 51 | 116 | 1.0 | 6.0 | 0.00 | 0.00 | 0.00 | 90 | 1021.7 |
| 20260906113017 | 51 | 136 | 1.0 | 6.0 | 0.00 | 0.00 | 0.00 | 90 | 1021.5 |
| 20260906112508 | 51 | 101 | 1.0 | 3.0 | 0.00 | 0.00 | 0.00 | 90 | 1021.5 |
| 20260906112007 | 51 | 95 | 1.0 | 3.0 | 0.00 | 0.00 | 0.00 | 90 | 1021.4 |
| 20260906111529 | 51 | 141 | 0.0 | 4.0 | 0.00 | 0.00 | 0.00 | 90 | 1021.6 |
| 20260906111010 | 51 | 92 | 2.0 | 4.0 | 0.00 | 0.00 | 0.00 | 90 | 1021.5 |
| 20260906110513 | 51 | 117 | 1.0 | 3.0 | 0.00 | 0.00 | 0.00 | 90 | 1021.3 |
| 20260906110026 | 51 | 117 | 1.0 | 4.0 | 0.00 | 0.00 | 0.00 | 90 | 1021.1 |
| 20260906105510 | 51 | 113 | 1.0 | 4.0 | 0.00 | 0.00 | 0.00 | 90 | 1021.2 |
| 20260906105010 | 51 | 115 | 2.0 | 4.0 | 0.00 | 0.00 | 0.00 | 90 | 1021.5 |
| 20260906104530 | 51 | 124 | 2.0 | 4.0 | 0.00 | 0.00 | 0.00 | 89 | 1021.5 |
| 20260906104009 | 51 | 129 | 1.0 | 3.0 | 0.00 | 0.00 | 0.00 | 89 | 1021.5 |
| 20260906103506 | 51 | 112 | 1.0 | 5.0 | 0.00 | 0.00 | 0.00 | 89 | 1021.9 |
| 20260906103016 | 51 | 113 | 1.0 | 5.0 | 0.00 | 0.00 | 0.00 | 89 | 1021.9 |
| 20260906102505 | 51 | 122 | 2.0 | 5.0 | 0.00 | 0.00 | 0.00 | 89 | 1021.9 |
| 20260906102007 | 51 | 112 | 0.0 | 3.0 | 0.00 | 0.00 | 0.00 | 90 | 1022.0 |
| 20260906101518 | 51 | 114 | 1.0 | 4.0 | 0.00 | 0.00 | 0.00 | 90 | 1022.0 |
| 20260906101009 | 51 | 158 | 1.0 | 4.0 | 0.00 | 0.00 | 0.00 | 90 | 1022.2 |
| 20260906100511 | 51 | 110 | 1.0 | 5.0 | 0.00 | 0.00 | 0.00 | 90 | 1022.1 |
| 20260906100026 | 51 | 113 | 0.0 | 5.0 | 0.00 | 0.00 | 0.00 | 90 | 1022.2 |
| 20260906095510 | 51 | 94 | 1.0 | 4.0 | 0.00 | 0.00 | 0.00 | 90 | 1022.2 |
| 20260906095014 | 51 | 129 | 2.0 | 4.0 | 0.00 | 0.00 | 0.00 | 90 | 1022.1 |
| 20260906094530 | 51 | 117 | 1.0 | 3.0 | 0.00 | 0.00 | 0.00 | 90 | 1022.2 |
| 20260906094013 | 51 | 116 | 0.0 | 3.0 | 0.00 | 0.00 | 0.00 | 90 | 1022.2 |
| 20260906093514 | 51 | 79 | 1.0 | 3.0 | 0.00 | 0.00 | 0.00 | 90 | 1022.2 |
| 20260906093030 | 51 | 114 | 0.0 | 4.0 | 0.00 | 0.00 | 0.00 | 90 | 1022.4 |
| 20260906092516 | 51 | 123 | 1.0 | 4.0 | 0.00 | 0.00 | 0.00 | 90 | 1022.4 |
| 20260906092014 | 51 | 117 | 1.0 | 2.0 | 0.00 | 0.00 | 0.00 | 90 | 1022.5 |
| 20260906091517 | 51 | 120 | 0.0 | 2.0 | 0.00 | 0.00 | 0.00 | 90 | 1022.5 |
| 20260906091007 | 51 | 108 | 1.0 | 4.0 | 0.00 | 0.00 | 0.00 | 90 | 1022.6 |
| 20260906090508 | 51 | 98 | 1.0 | 5.0 | 0.00 | 0.00 | 0.00 | 90 | 1022.5 |
| 20260906090019 | 51 | 102 | 0.0 | 5.0 | 0.00 | 0.00 | 0.00 | 90 | 1022.5 |
| 20260906085508 | 51 | 113 | 2.0 | 5.0 | 0.00 | 0.00 | 0.00 | 90 | 1022.6 |
| 20260906085010 | 51 | 120 | 2.0 | 4.0 | 0.00 | 0.00 | 0.00 | 90 | 1022.6 |
| 20260906084529 | 51 | 124 | 2.0 | 3.0 | 0.00 | 0.00 | 0.00 | 90 | 1022.6 |
| 20260906084017 | 51 | 119 | 1.0 | 3.0 | 0.00 | 0.00 | 0.00 | 90 | 1022.6 |
| 20260906083513 | 51 | 138 | 1.0 | 4.0 | 0.00 | 0.00 | 0.00 | 90 | 1022.7 |
| 20260906083004 | 51 | 118 | 2.0 | 4.0 | 0.00 | 0.00 | 0.00 | 90 | 1022.8 |
| 20260906082503 | 51 | 120 | 1.0 | 2.0 | 0.00 | 0.00 | 0.00 | 90 | 1022.7 |
| 20260906082004 | 51 | 116 | 0.0 | 3.0 | 0.00 | 0.00 | 0.00 | 90 | 1022.6 |
| 20260906081511 | 51 | 119 | 0.0 | 3.0 | 0.00 | 0.00 | 0.00 | 90 | 1022.6 |
| 20260906081004 | 51 | 113 | 1.0 | 2.0 | 0.00 | 0.00 | 0.00 | 90 | 1022.7 |
| 20260906080504 | 51 | 130 | 0.0 | 2.0 | 0.00 | 0.00 | 0.00 | 90 | 1022.7 |
| 20260906080025 | 51 | 108 | 0.0 | 2.0 | 0.00 | 0.00 | 0.00 | 90 | 1022.7 |
| 20260906075509 | 51 | 117 | 0.0 | 2.0 | 0.00 | 0.00 | 0.00 | 90 | 1022.8 |
| 20260906075010 | 51 | 122 | 0.0 | 2.0 | 0.00 | 0.00 | 0.00 | 90 | 1022.8 |
| 20260906074523 | 51 | 123 | 1.0 | 2.0 | 0.00 | 0.00 | 0.00 | 89 | 1023.1 |
| 20260906074002 | 51 | 123 | 0.0 | 2.0 | 0.00 | 0.00 | 0.00 | 89 | 1023.1 |
| 20260906073502 | 51 | 116 | 0.0 | 2.0 | 0.00 | 0.00 | 0.00 | 89 | 1023.0 |
| 20260906073006 | 51 | 127 | 1.0 | 2.0 | 0.00 | 0.00 | 0.00 | 89 | 1023.0 |
| 20260906072504 | 51 | 126 | 0.0 | 1.0 | 0.00 | 0.00 | 0.00 | 89 | 1023.0 |
| 20260906072003 | 51 | 126 | 0.0 | 2.0 | 0.00 | 0.00 | 0.00 | 89 | 1023.0 |
| 20260906071504 | 51 | 126 | 0.0 | 2.0 | 0.00 | 0.00 | 0.00 | 89 | 1023.1 |
| 20260906071003 | 51 | 103 | 1.0 | 1.0 | 0.00 | 0.00 | 0.00 | 89 | 1023.1 |
| 20260906070506 | 51 | 106 | 0.0 | 1.0 | 0.00 | 0.00 | 0.00 | 89 | 1023.1 |
| 20260906070013 | 51 | 106 | 0.0 | 1.0 | 0.00 | 0.00 | 0.00 | 89 | 1023.0 |
| 20260906065504 | 51 | 107 | 0.0 | 1.0 | 0.00 | 0.00 | 0.00 | 89 | 1023.0 |
| 20260906065006 | 51 | 106 | 0.0 | 1.0 | 0.00 | 0.01 | 0.00 | 89 | 1023.1 |
| 20260906064517 | 51 | 122 | 0.0 | 2.0 | 0.00 | 0.01 | 0.00 | 89 | 1023.1 |
| 20260906064011 | 51 | 122 | 1.0 | 3.0 | 0.00 | 0.01 | 0.00 | 89 | 1023.1 |
| 20260906063509 | 51 | 105 | 0.0 | 3.0 | 0.00 | 0.01 | 0.00 | 89 | 1023.1 |
| 20260906063027 | 51 | 102 | 1.0 | 3.0 | 0.00 | 0.01 | 0.00 | 89 | 1023.1 |
| 20260906062512 | 51 | 112 | 0.0 | 2.0 | 0.00 | 0.01 | 0.00 | 89 | 1023.1 |
| 20260906062003 | 51 | 130 | 0.0 | 2.0 | 0.00 | 0.01 | 0.00 | 89 | 1023.2 |
| 20260906061505 | 52 | 69 | 0.0 | 3.0 | 0.00 | 0.01 | 0.00 | 88 | 1023.2 |
| 20260906061004 | 52 | 69 | 1.0 | 3.0 | 0.00 | 0.01 | 0.00 | 89 | 1023.1 |
| 20260906060507 | 52 | 69 | 0.0 | 2.0 | 0.00 | 0.02 | 0.00 | 88 | 1023.3 |
| 20260906060006 | 52 | 118 | 0.0 | 4.0 | 0.00 | 0.02 | 0.00 | 88 | 1023.3 |
| 20260906055506 | 52 | 124 | 1.0 | 4.0 | 0.00 | 0.02 | 0.02 | 88 | 1023.3 |
| 20260906055006 | 52 | 121 | 2.0 | 4.0 | 0.00 | 0.02 | 0.02 | 88 | 1023.3 |
| 20260906054511 | 52 | 111 | 1.0 | 4.0 | 0.00 | 0.02 | 0.02 | 88 | 1023.3 |
| 20260906054007 | 52 | 96 | 1.0 | 4.0 | 0.00 | 0.02 | 0.02 | 88 | 1023.3 |
| 20260906053512 | 52 | 48 | 1.0 | 3.0 | 0.00 | 0.02 | 0.02 | 88 | 1023.3 |
| 20260906053016 | 52 | 114 | 0.0 | 4.0 | 0.00 | 0.02 | 0.02 | 88 | 1023.3 |
| 20260906052508 | 52 | 39 | 2.0 | 4.0 | 0.00 | 0.02 | 0.02 | 87 | 1023.2 |
| 20260906052010 | 52 | 83 | 1.0 | 4.0 | 0.00 | 0.02 | 0.02 | 87 | 1023.2 |
| 20260906051527 | 52 | 126 | 1.0 | 3.0 | 0.00 | 0.02 | 0.02 | 87 | 1023.2 |
| 20260906051011 | 52 | 97 | 0.0 | 2.0 | 0.00 | 0.02 | 0.02 | 87 | 1023.1 |
| 20260906050513 | 52 | 125 | 0.0 | 2.0 | 0.00 | 0.02 | 0.02 | 87 | 1023.2 |
| 20260906050007 | 52 | 100 | 0.0 | 2.0 | 0.00 | 0.02 | 0.02 | 87 | 1023.3 |
| 20260906045504 | 52 | 91 | 0.0 | 2.0 | 0.00 | 0.02 | 0.02 | 87 | 1023.3 |
| 20260906045005 | 52 | 115 | 0.0 | 1.0 | 0.00 | 0.02 | 0.02 | 87 | 1023.2 |
| 20260906044508 | 52 | 89 | 0.0 | 1.0 | 0.00 | 0.02 | 0.02 | 87 | 1023.2 |
| 20260906044010 | 52 | 62 | 0.0 | 1.0 | 0.00 | 0.02 | 0.02 | 87 | 1023.1 |
| 20260906043506 | 52 | 55 | 0.0 | 0.0 | 0.00 | 0.02 | 0.02 | 87 | 1023.2 |
| 20260906043027 | 52 | 54 | 0.0 | 1.0 | 0.00 | 0.02 | 0.02 | 87 | 1023.1 |
| 20260906042506 | 52 | 54 | 0.0 | 1.0 | 0.00 | 0.02 | 0.02 | 87 | 1023.0 |
| 20260906042008 | 52 | 22 | 0.0 | 1.0 | 0.00 | 0.02 | 0.02 | 87 | 1022.9 |
| 20260906041520 | 52 | 20 | 0.0 | 1.0 | 0.00 | 0.02 | 0.02 | 87 | 1023.0 |
| 20260906041010 | 52 | 100 | 0.0 | 2.0 | 0.00 | 0.02 | 0.02 | 87 | 1023.0 |
| 20260906040511 | 52 | 51 | 1.0 | 3.0 | 0.00 | 0.02 | 0.02 | 86 | 1023.1 |
| 20260906040026 | 52 | 46 | 1.0 | 4.0 | 0.00 | 0.02 | 0.02 | 86 | 1023.0 |
| 20260906035514 | 52 | 62 | 1.0 | 4.0 | 0.00 | 0.02 | 0.02 | 86 | 1023.0 |
| 20260906035012 | 52 | 354 | 1.0 | 3.0 | 0.00 | 0.02 | 0.02 | 86 | 1023.0 |
| 20260906034530 | 52 | 66 | 1.0 | 2.0 | 0.00 | 0.02 | 0.02 | 86 | 1023.1 |
| 20260906034003 | 52 | 77 | 0.0 | 3.0 | 0.00 | 0.02 | 0.02 | 86 | 1023.2 |
| 20260906033502 | 52 | 78 | 1.0 | 4.0 | 0.00 | 0.02 | 0.02 | 86 | 1023.2 |
| 20260906033019 | 52 | 63 | 1.0 | 4.0 | 0.00 | 0.02 | 0.02 | 86 | 1023.2 |
| 20260906032504 | 52 | 63 | 0.0 | 4.0 | 0.00 | 0.02 | 0.02 | 86 | 1023.2 |
| 20260906032007 | 52 | 49 | 1.0 | 4.0 | 0.00 | 0.02 | 0.02 | 86 | 1023.1 |
| 20260906031517 | 52 | 56 | 1.0 | 3.0 | 0.00 | 0.02 | 0.02 | 86 | 1023.1 |
| 20260906031008 | 52 | 97 | 0.0 | 4.0 | 0.00 | 0.02 | 0.02 | 86 | 1023.1 |
| 20260906030508 | 52 | 120 | 0.0 | 4.0 | 0.00 | 0.02 | 0.02 | 86 | 1023.2 |
| 20260906030025 | 52 | 60 | 0.0 | 4.0 | 0.00 | 0.02 | 0.02 | 85 | 1023.1 |
| 20260906025511 | 52 | 25 | 1.0 | 4.0 | 0.00 | 0.02 | 0.02 | 85 | 1023.2 |
| 20260906025013 | 52 | 89 | 0.0 | 4.0 | 0.00 | 0.02 | 0.02 | 85 | 1023.1 |
| 20260906024527 | 53 | 92 | 2.0 | 5.0 | 0.00 | 0.02 | 0.02 | 85 | 1023.1 |
| 20260906024016 | 53 | 43 | 1.0 | 5.0 | 0.00 | 0.02 | 0.02 | 85 | 1023.1 |
| 20260906023517 | 53 | 349 | 0.0 | 6.0 | 0.00 | 0.02 | 0.02 | 85 | 1023.0 |
| 20260906023030 | 53 | 69 | 2.0 | 6.0 | 0.00 | 0.02 | 0.02 | 85 | 1023.0 |
| 20260906022515 | 53 | 60 | 1.0 | 4.0 | 0.00 | 0.02 | 0.02 | 85 | 1023.0 |
| 20260906022003 | 53 | 79 | 1.0 | 4.0 | 0.00 | 0.02 | 0.02 | 85 | 1022.9 |
| 20260906021509 | 53 | 17 | 1.0 | 3.0 | 0.00 | 0.02 | 0.02 | 85 | 1022.9 |
| 20260906021010 | 53 | 14 | 1.0 | 3.0 | 0.00 | 0.02 | 0.02 | 84 | 1022.9 |
| 20260906020508 | 53 | 53 | 1.0 | 3.0 | 0.00 | 0.02 | 0.02 | 84 | 1022.8 |
| 20260906020018 | 53 | 37 | 1.0 | 5.0 | 0.00 | 0.02 | 0.02 | 84 | 1022.8 |
| 20260906015509 | 53 | 7 | 0.0 | 6.0 | 0.00 | 0.02 | 0.02 | 84 | 1022.8 |
| 20260906015012 | 53 | 52 | 2.0 | 6.0 | 0.00 | 0.02 | 0.02 | 83 | 1022.8 |
| 20260906014527 | 53 | 15 | 1.0 | 4.0 | 0.00 | 0.02 | 0.02 | 83 | 1022.7 |
| 20260906014013 | 53 | 51 | 2.0 | 6.0 | 0.00 | 0.02 | 0.02 | 83 | 1022.7 |
| 20260906013512 | 53 | 56 | 1.0 | 6.0 | 0.00 | 0.02 | 0.02 | 83 | 1022.7 |
| 20260906013040 | 53 | 37 | 1.0 | 6.0 | 0.00 | 0.02 | 0.02 | 83 | 1022.6 |
| 20260906012514 | 53 | 59 | 1.0 | 6.0 | 0.00 | 0.02 | 0.02 | 83 | 1022.6 |
| 20260906012019 | 53 | 63 | 2.0 | 5.0 | 0.00 | 0.02 | 0.02 | 83 | 1022.6 |
| 20260906011529 | 53 | 59 | 2.0 | 5.0 | 0.00 | 0.02 | 0.02 | 83 | 1022.6 |
| 20260906011019 | 53 | 45 | 1.0 | 5.0 | 0.00 | 0.02 | 0.02 | 83 | 1022.5 |
| 20260906010517 | 53 | 333 | 1.0 | 5.0 | 0.00 | 0.02 | 0.02 | 82 | 1022.6 |
| 20260906010014 | 53 | 20 | 1.0 | 5.0 | 0.00 | 0.02 | 0.02 | 82 | 1022.6 |
| 20260906005505 | 54 | 24 | 1.0 | 4.0 | 0.00 | 0.02 | 0.02 | 82 | 1022.5 |
| 20260906005009 | 53 | 360 | 1.0 | 5.0 | 0.00 | 0.02 | 0.02 | 82 | 1022.4 |
| 20260906004518 | 54 | 29 | 1.0 | 5.0 | 0.00 | 0.02 | 0.02 | 82 | 1022.3 |
| 20260906004008 | 54 | 23 | 2.0 | 4.0 | 0.00 | 0.02 | 0.02 | 82 | 1022.3 |
| 20260906003512 | 54 | 358 | 1.0 | 5.0 | 0.00 | 0.02 | 0.02 | 82 | 1022.3 |
| 20260906003027 | 54 | 359 | 2.0 | 5.0 | 0.00 | 0.02 | 0.02 | 81 | 1022.2 |
| 20260906002511 | 54 | 7 | 1.0 | 5.0 | 0.00 | 0.02 | 0.02 | 82 | 1022.3 |
| 20260906002014 | 54 | 13 | 1.0 | 5.0 | 0.00 | 0.02 | 0.02 | 82 | 1022.3 |
| 20260906001530 | 54 | 9 | 2.0 | 5.0 | 0.00 | 0.02 | 0.02 | 82 | 1022.3 |
| 20260906001016 | 54 | 78 | 1.0 | 5.0 | 0.00 | 0.02 | 0.02 | 82 | 1022.3 |
| 20260906000516 | 54 | 37 | 2.0 | 4.0 | 0.00 | 0.02 | 0.02 | 82 | 1022.4 |
| 20260906000049 | 54 | 55 | 2.0 | 4.0 | 0.00 | 0.02 | 0.02 | 82 | 1022.5 |
| 20260905235517 | 54 | 20 | 1.0 | 4.0 | 0.00 | 0.02 | 0.02 | 83 | 1022.4 |
| 20260905235018 | 53 | 57 | 1.0 | 6.0 | 0.00 | 0.02 | 0.02 | 83 | 1022.6 |
| 20260905234537 | 53 | 15 | 1.0 | 6.0 | 0.00 | 0.02 | 0.02 | 83 | 1022.6 |
| 20260905234007 | 53 | 8 | 3.0 | 6.0 | 0.00 | 0.02 | 0.02 | 82 | 1022.6 |
| 20260905233510 | 53 | 16 | 1.0 | 4.0 | 0.00 | 0.02 | 0.02 | 82 | 1022.7 |
| 20260905233021 | 54 | 39 | 2.0 | 4.0 | 0.00 | 0.02 | 0.02 | 82 | 1022.6 |
| 20260905232502 | 54 | 336 | 1.0 | 4.0 | 0.00 | 0.02 | 0.02 | 82 | 1022.6 |
| 20260905232006 | 54 | 299 | 1.0 | 4.0 | 0.00 | 0.02 | 0.02 | 82 | 1022.7 |
| 20260905231504 | 54 | 321 | 2.0 | 4.0 | 0.00 | 0.02 | 0.02 | 82 | 1022.7 |